[[{"header":{"parameterUnit":"m.s-1","parameterCategory":2,"la1":30.2991,"la2":30.254,"lo1":-89.0895,"lo2":-89.0444,"dy":0.0017,"dx":0.0017,"nx":28,"ny":28,"refTime":"2025-11-14T09:00:00:Z","depth":"0","parameterNumber":2,"parameterNumberName":"U-component_of_CURRENTS"},"data":[0,0,0,0,0,0,0,0,0,0,0,0,0,0,0,0,0,0,0,0,0,0,0,0,0,0,0,0,0,0,0,0,0,0,0,0,0,0,0,0,0,0,0,0,0,0,0,0,0,0,0,0,0,0,0,0,0,0,0.4776,0.4776,0,0.4806,0.4806,0.4806,0.4792,0.4791,0.479,0.479,0.4911,0.4915,0.4919,0,0,0,0,0,0,0,0,0,0,0,0,0,0.4642,0.4645,0.4776,0.4776,0.4777,0.4806,0.4806,0.4806,0.4792,0.4791,0.479,0.4789,0.491,0.4915,0.4919,0,0,0,0,0,0,0,0,0,0,0,0,0,0.4688,0.4646,0.4776,0.4774,0.4774,0.4805,0.4806,0.4806,0.4792,0.4791,0.479,0.4789,0.4909,0.4914,0.492,0.4976,0,0,0.4938,0.494,0,0,0,0,0,0,0,0,0.4686,0.4693,0.4774,0.4774,0.4774,0.4795,0.4803,0.4868,0.4792,0.4784,0.479,0.4788,0.4883,0.489,0.4895,0.4981,0.4987,0.4938,0.4942,0.4944,0.4946,0,0,0,0,0,0,0,0.4683,0.4691,0.4787,0.4774,0.4775,0.4749,0.4755,0.4815,0.4839,0.4785,0.4784,0.4789,0.4883,0.4889,0.4898,0.4988,0.4938,0.4943,0.4947,0.4949,0.5163,0.5165,0,0,0,0,0,0,0.4686,0.4689,0.4786,0.4788,0.4728,0.4753,0.476,0.4788,0.4837,0.4843,0.479,0.4788,0.488,0.4891,0.4903,0.4983,0.4944,0.495,0.4953,0.5161,0.5164,0.5166,0,0,0,0,0,0,0.4684,0.4696,0.4784,0.4738,0.4747,0.4757,0.4789,0.479,0.479,0.484,0.4847,0.479,0.488,0.4895,0.4978,0.4987,0.4952,0.4957,0.5158,0.5162,0.5165,0.5138,0,0,0,0,0,0,0.468,0.4695,0.4718,0.4739,0.475,0.4812,0.479,0.4791,0.4796,0.4794,0.4843,0.4853,0.488,0.4969,0.4983,0.4995,0.4962,0.5156,0.516,0.5164,0.5136,0.514,0.5143,0,0,0,0,0,0.4676,0.4723,0.4719,0.4731,0.4782,0.4813,0.4817,0.4817,0.4797,0.4811,0.4854,0.4851,0.5005,0.4976,0.4992,0.5005,0.5154,0.5159,0.5164,0.5134,0.5139,0.5143,0,0,0,0,0,0,0.4696,0.4727,0.4723,0.4782,0.4795,0.4811,0.4827,0.4818,0.4857,0.4857,0.489,0.4906,0.4986,0.5011,0.4978,0.5084,0.5075,0.5084,0.5047,0.5052,0.5056,0.5059,0.4967,0,0,0,0,0,0.4707,0.4739,0.476,0.4806,0.4811,0.4813,0.4823,0.4823,0.4857,0.4869,0.4899,0.495,0.5021,0.5046,0.5114,0.5171,0.52,0.519,0.5194,0.5196,0.5214,0.5269,0.5278,0.5183,0.5183,0.5182,0,0,0.4724,0.4748,0.4764,0.4809,0.4815,0.483,0.4817,0.4838,0.4852,0.4883,0.492,0.4975,0.5047,0.5117,0.5151,0.5132,0.524,0.5203,0.5204,0.5221,0.5275,0.5284,0.5292,0.5186,0.5185,0.5185,0,0,0.476,0.4796,0.4816,0.4829,0.4845,0.4851,0.4855,0.4867,0.4875,0.4925,0.4959,0.5021,0.5101,0.5152,0.5191,0.526,0.527,0.5274,0.5276,0.5329,0.5337,0.5344,0.5381,0.5392,0.5257,0.5257,0.5257,0,0.477,0.4809,0.4828,0.4846,0.4858,0.4857,0.4872,0.489,0.4927,0.4948,0.4939,0.507,0.5119,0.5214,0.524,0.5264,0.5295,0.5243,0.533,0.5338,0.5345,0.5383,0.5394,0.5256,0.5256,0.5257,0.5257,0,0.48,0.4832,0.485,0.4866,0.489,0.4907,0.4928,0.4946,0.4947,0.4964,0.5046,0.5114,0.5185,0.5208,0.5249,0.5332,0.5337,0.5335,0.5306,0.5352,0.539,0.5402,0.5255,0.5256,0.5256,0.5256,0,0,0.4789,0.4854,0.4852,0.4853,0.4898,0.4905,0.4954,0.4989,0.499,0.5042,0.5063,0.5191,0.5208,0.5257,0.5301,0.5346,0.5421,0.5362,0.5366,0.5378,0.5534,0.5434,0.5438,0.5428,0.5431,0.5433,0.5533,0,0.4786,0.4822,0.4866,0.4882,0.4889,0.4927,0.4958,0.4997,0.5022,0.5042,0.5123,0.5171,0.523,0.5248,0.5316,0.5392,0.5457,0.5394,0.5509,0.5513,0.5398,0.5451,0.5174,0.5231,0.5545,0.5547,0.5549,0,0.4763,0.4795,0.4821,0.4863,0.4867,0.4884,0.4912,0.4943,0.5006,0.5029,0.5105,0.5153,0.5257,0.5273,0.5444,0.54,0.5489,0.5541,0.5546,0.5474,0.5436,0.5242,0.5243,0.5065,0.5569,0.5567,0.5566,0,0.4685,0.4745,0.4762,0.4775,0.4833,0.485,0.4877,0.4934,0.4944,0.5014,0.5017,0.5152,0.5182,0.5328,0.5458,0.5457,0.5617,0.5616,0.5622,0.5615,0.5415,0.5386,0.5237,0.5763,0.5763,0.5762,0.5762,0,0.4638,0.464,0.4718,0.4713,0.4718,0.4782,0.4781,0.4827,0.4873,0.4874,0.4996,0.5023,0.5198,0.5304,0.545,0.5562,0.5619,0.5643,0.5641,0.5397,0.5367,0.5233,0.5181,0.5766,0.5765,0.5764,0.5764,0,0.4537,0.4592,0.46,0.4662,0.4675,0.467,0.4714,0.4706,0.4767,0.4768,0.4789,0.4924,0.5059,0.523,0.5434,0.5508,0.5481,0.5688,0.5381,0.5341,0.5145,0.5103,0.4918,0.4799,0.5691,0.5689,0.5688,0,0.4491,0.4487,0.4538,0.4533,0.4558,0.4568,0.4569,0.4642,0.4636,0.4708,0.4698,0.4827,0.4912,0.5156,0.5303,0.5501,0.5399,0.5348,0.5305,0.51,0.5055,0.4932,0.4837,0.5033,0.5027,0.5021,0.5017,0,0.4399,0.4418,0.443,0.4423,0.4422,0.4414,0.4424,0.4401,0.4465,0.4486,0.4527,0.4604,0.481,0.4857,0.5079,0.519,0.5027,0.5241,0.51,0.459,0.4376,0.4268,0.5008,0.4967,0.4972,0.4976,0.4979,0.4981,0.4324,0.4309,0.4319,0.4297,0.4286,0.423,0.4172,0.4189,0.4168,0.413,0.4324,0.4326,0.4434,0.4704,0.4798,0.4663,0.4759,0.4524,0.4515,0.4431,0.4214,0.4846,0.4758,0.4761,0.4764,0.4767,0.477,0,0.4222,0.4207,0.4187,0.4137,0.4059,0.4104,0.404,0.3942,0.3862,0.3895,0.394,0.3916,0.3947,0.4046,0.4042,0.3938,0.3856,0.3809,0.3546,0.3516,0.412,0.3985,0.3633,0.3634,0.3634,0.3634,0.3634,0.3634,0.416,0.4107,0.4092,0.3928,0.3874,0.3715,0.3648,0.3532,0.3488,0.333,0.3247,0.3312,0.3432,0.3461,0.3341,0.3298,0.3101,0.293,0.3028,0.3404,0.3468,0.353,0.3387,0.2916,0.2915,0.2246,0.224,0.2236]},{"header":{"parameterUnit":"m.s-1","parameterCategory":2,"la1":30.2991,"la2":30.254,"lo1":-89.0895,"lo2":-89.0444,"dy":0.0017,"dx":0.0017,"nx":28,"ny":28,"refTime":"2025-11-14T09:00:00:Z","depth":"0","parameterNumber":3,"parameterNumberName":"V-component_of_CURRENTS"},"data":[0,0,0,0,0,0,0,0,0,0,0,0,0,0,0,0,0,0,0,0,0,0,0,0,0,0,0,0,0,0,0,0,0,0,0,0,0,0,0,0,0,0,0,0,0,0,0,0,0,0,0,0,0,0,0,0,0,0,0.0249,0.0248,0,0.0207,0.0207,0.0207,0.0183,0.0182,0.0182,0.0182,0.0164,0.0164,0.0164,0,0,0,0,0,0,0,0,0,0,0,0,0,0.028,0.028,0.0249,0.0248,0.0248,0.0207,0.0207,0.0207,0.0183,0.0182,0.0182,0.0181,0.0164,0.0164,0.0164,0,0,0,0,0,0,0,0,0,0,0,0,0,0.0258,0.028,0.0249,0.0229,0.0226,0.0207,0.0207,0.0207,0.0183,0.0182,0.0182,0.0181,0.0164,0.0164,0.0164,0.0173,0,0,0.0163,0.0163,0,0,0,0,0,0,0,0,0.0259,0.0257,0.0233,0.023,0.0227,0.0197,0.0211,0.0196,0.0183,0.0202,0.0182,0.0181,0.0176,0.0175,0.0172,0.0172,0.0172,0.0163,0.0163,0.0163,0.0163,0,0,0,0,0,0,0,0.0261,0.0258,0.0235,0.0232,0.0228,0.0211,0.0208,0.0208,0.0195,0.0201,0.0198,0.0189,0.0175,0.0172,0.0171,0.0171,0.0163,0.0163,0.0163,0.0163,0.016,0.016,0,0,0,0,0,0,0.0262,0.026,0.0237,0.0234,0.0239,0.0211,0.0208,0.021,0.0195,0.0191,0.0189,0.0188,0.0173,0.0172,0.0171,0.0182,0.0163,0.0163,0.0163,0.016,0.016,0.016,0,0,0,0,0,0,0.0263,0.0261,0.0238,0.0243,0.0239,0.0211,0.0213,0.0209,0.0201,0.0185,0.0183,0.0185,0.0172,0.0171,0.0172,0.0181,0.0163,0.0163,0.016,0.016,0.016,0.0205,0,0,0,0,0,0,0.0265,0.0262,0.0268,0.0244,0.0238,0.0228,0.0213,0.0208,0.0195,0.0193,0.0181,0.0179,0.0172,0.0172,0.0172,0.0181,0.0162,0.016,0.016,0.016,0.0203,0.0206,0.0209,0,0,0,0,0,0.0266,0.027,0.0269,0.0265,0.0246,0.0228,0.0224,0.0204,0.0196,0.0195,0.0189,0.0179,0.0172,0.0173,0.0172,0.0181,0.016,0.016,0.016,0.0202,0.0206,0.0209,0,0,0,0,0,0,0.0277,0.0267,0.0265,0.0264,0.0249,0.0223,0.0217,0.0205,0.0199,0.0199,0.0186,0.0184,0.0187,0.0175,0.0176,0.0178,0.0162,0.0162,0.0194,0.0198,0.02,0.0233,0.0162,0,0,0,0,0,0.0285,0.0291,0.0272,0.0271,0.0265,0.0243,0.0234,0.0222,0.0209,0.0206,0.0196,0.0188,0.0187,0.0186,0.018,0.0186,0.0193,0.0188,0.0191,0.0194,0.0218,0.0233,0.024,0.016,0.016,0.016,0,0,0.0284,0.0282,0.0282,0.0275,0.0262,0.0257,0.0237,0.0224,0.0226,0.0206,0.0209,0.0199,0.019,0.0196,0.0195,0.0188,0.0217,0.0194,0.0196,0.022,0.0234,0.0242,0.0249,0.016,0.016,0.016,0,0,0.0281,0.0289,0.0288,0.0285,0.0271,0.0265,0.0262,0.0241,0.0239,0.024,0.0228,0.0233,0.0217,0.0225,0.0224,0.0241,0.0231,0.0222,0.0268,0.0281,0.0288,0.0295,0.0307,0.0315,0.0224,0.0225,0.0225,0,0.0278,0.0285,0.0283,0.0283,0.0286,0.027,0.0272,0.0269,0.0253,0.0268,0.0245,0.0255,0.024,0.0271,0.027,0.0252,0.0253,0.0257,0.0288,0.0294,0.03,0.0311,0.0319,0.0227,0.0226,0.0226,0.0226,0,0.0273,0.0284,0.0282,0.0289,0.0294,0.0292,0.0292,0.0301,0.0298,0.03,0.0325,0.0313,0.0326,0.031,0.0295,0.033,0.0314,0.029,0.0285,0.0312,0.0321,0.0328,0.023,0.0229,0.0228,0.0228,0,0,0.0257,0.0275,0.0276,0.0294,0.0302,0.0307,0.0328,0.035,0.0383,0.0371,0.0418,0.0407,0.041,0.041,0.0393,0.04,0.0432,0.0364,0.0363,0.0389,0.0461,0.0414,0.0417,0.0408,0.0409,0.0411,0.0448,0,0.0253,0.0264,0.0278,0.0304,0.0315,0.0336,0.0365,0.0391,0.0411,0.0453,0.0462,0.0489,0.0444,0.0457,0.0461,0.0449,0.0454,0.0424,0.0422,0.0423,0.0387,0.0425,0.0388,0.0415,0.0455,0.0457,0.0457,0,0.025,0.0264,0.028,0.0337,0.0346,0.0363,0.0434,0.0458,0.0518,0.0538,0.0576,0.0582,0.0618,0.0561,0.0574,0.0554,0.0515,0.0493,0.0494,0.0446,0.0389,0.0395,0.0427,0.0245,0.0468,0.0468,0.0467,0,0.0251,0.0278,0.0299,0.0311,0.0359,0.0388,0.0422,0.0483,0.0532,0.06,0.0648,0.0679,0.0712,0.0681,0.064,0.0608,0.0645,0.0593,0.0516,0.0512,0.0482,0.0472,0.0353,0.0593,0.0593,0.0593,0.0593,0,0.0257,0.0279,0.0301,0.0315,0.0369,0.04,0.0473,0.0515,0.0595,0.0686,0.0693,0.078,0.0741,0.0758,0.0691,0.0644,0.0686,0.0547,0.0527,0.0492,0.0484,0.0324,0.0231,0.0595,0.0594,0.0594,0.0594,0,0.0264,0.027,0.0305,0.0349,0.037,0.0411,0.0503,0.0568,0.0628,0.0752,0.0783,0.0867,0.0903,0.0848,0.082,0.0717,0.0571,0.0625,0.0588,0.0561,0.0296,0.0208,0.0126,0.0074,0.0553,0.0552,0.0551,0,0.0267,0.028,0.0325,0.0357,0.0379,0.0442,0.0504,0.0578,0.0663,0.0827,0.0905,0.0975,0.1089,0.1021,0.0847,0.0729,0.0571,0.0561,0.0485,0.0293,0.018,0.0132,0.0091,0.0463,0.0462,0.0461,0.046,0,0.0284,0.0295,0.0325,0.0384,0.0442,0.0522,0.0617,0.0697,0.0822,0.0964,0.1174,0.1285,0.1208,0.112,0.0894,0.0762,0.0423,0.0532,0.035,0.0122,0.0048,-0.0015,0.0421,0.045,0.0451,0.0452,0.0452,0.0453,0.0298,0.0324,0.0362,0.0426,0.0505,0.0626,0.0736,0.0884,0.108,0.1371,0.1406,0.1636,0.1351,0.1073,0.0839,0.0314,0.0369,0.016,0.008,0.0057,-0.0032,0.0379,0.0364,0.0364,0.0365,0.0365,0.0365,0,0.0308,0.0345,0.0408,0.05,0.0612,0.0647,0.084,0.1014,0.1312,0.1571,0.181,0.1774,0.1415,0.0969,0.0276,-0.0064,-0.0176,-0.0266,-0.0357,-0.0366,0.001,-0.0038,-0.0163,-0.0163,-0.0162,-0.0162,-0.0162,-0.0162,0.0315,0.0364,0.0401,0.0576,0.0671,0.088,0.1022,0.1317,0.1554,0.1939,0.2084,0.2144,0.1711,0.0488,-0.0339,-0.0519,-0.0728,-0.0785,-0.0851,-0.0646,-0.0613,-0.0582,-0.0651,-0.0902,-0.0903,-0.1189,-0.1193,-0.1196]}],[{"header":{"parameterUnit":"m.s-1","parameterCategory":2,"la1":30.2991,"la2":30.254,"lo1":-89.0895,"lo2":-89.0444,"dy":0.0017,"dx":0.0017,"nx":28,"ny":28,"refTime":"2025-11-14T09:00:00:Z","depth":"2","parameterNumber":2,"parameterNumberName":"U-component_of_CURRENTS"},"data":[0,0,0,0,0,0,0,0,0,0,0,0,0,0,0,0,0,0,0,0,0,0,0,0,0,0,0,0,0,0,0,0,0,0,0,0,0,0,0,0,0,0,0,0,0,0,0,0,0,0,0,0,0,0,0,0,0,0,0.1985,0.1988,0,0.2311,0.2315,0.2318,0.2563,0.2565,0.2567,0.2569,0.2542,0.2539,0.2536,0,0,0,0,0,0,0,0,0,0,0,0,0,0.1902,0.19,0.1984,0.1989,0.1993,0.231,0.2315,0.2319,0.2562,0.2565,0.2568,0.257,0.2543,0.2539,0.2536,0,0,0,0,0,0,0,0,0,0,0,0,0,0.2052,0.1899,0.1984,0.2153,0.2171,0.2309,0.2315,0.232,0.2562,0.2565,0.2568,0.2571,0.2544,0.254,0.2536,0.2443,0,0,0.2523,0.2521,0,0,0,0,0,0,0,0,0.2043,0.2055,0.2124,0.2141,0.2162,0.24,0.2277,0.2344,0.2561,0.2413,0.2569,0.2573,0.2459,0.2462,0.2521,0.2441,0.244,0.2522,0.252,0.2518,0.2517,0,0,0,0,0,0,0,0.2032,0.2044,0.2113,0.2128,0.2151,0.2325,0.2347,0.2293,0.2406,0.2426,0.2445,0.2481,0.2468,0.2525,0.2521,0.244,0.2522,0.2519,0.2516,0.2514,0.2439,0.244,0,0,0,0,0,0,0.197,0.2031,0.2103,0.2123,0.211,0.2322,0.2348,0.232,0.2415,0.2436,0.2477,0.2491,0.253,0.2525,0.252,0.2518,0.2518,0.2514,0.2512,0.2439,0.2439,0.244,0,0,0,0,0,0,0.1966,0.1971,0.209,0.2091,0.2118,0.2318,0.2287,0.2324,0.2435,0.2458,0.2473,0.2555,0.2533,0.2526,0.2505,0.2514,0.2512,0.2508,0.2438,0.2439,0.244,0.2444,0,0,0,0,0,0,0.1961,0.1965,0.1959,0.2083,0.2115,0.2127,0.2285,0.2328,0.2449,0.2471,0.2526,0.2527,0.2535,0.2512,0.2501,0.2508,0.2505,0.2437,0.2438,0.2439,0.2443,0.2445,0.2447,0,0,0,0,0,0.1956,0.1925,0.1955,0.1967,0.2084,0.2124,0.2154,0.2315,0.2449,0.2441,0.2527,0.2528,0.2512,0.2507,0.2495,0.2501,0.2437,0.2438,0.2439,0.2443,0.2445,0.2446,0,0,0,0,0,0,0.1931,0.195,0.1986,0.1974,0.2021,0.2165,0.221,0.2327,0.2406,0.2447,0.2507,0.2507,0.2502,0.2491,0.2485,0.2488,0.2484,0.2482,0.2491,0.2492,0.2494,0.251,0.2502,0,0,0,0,0,0.19,0.1874,0.1915,0.1925,0.1922,0.2074,0.2138,0.2225,0.2307,0.2358,0.2413,0.2467,0.2488,0.2484,0.2477,0.2445,0.2495,0.2452,0.2454,0.2455,0.2463,0.2579,0.2592,0.2444,0.2444,0.2444,0,0,0.1921,0.1922,0.1926,0.1918,0.1983,0.1992,0.212,0.2181,0.2241,0.232,0.2413,0.2452,0.2481,0.2479,0.2475,0.2474,0.2517,0.2457,0.2457,0.2465,0.2582,0.2597,0.261,0.2445,0.2444,0.2444,0,0,0.1912,0.1902,0.1859,0.1868,0.191,0.1971,0.1982,0.2093,0.2174,0.2218,0.2336,0.239,0.2397,0.2455,0.248,0.2473,0.2521,0.2475,0.249,0.2602,0.2616,0.2629,0.2687,0.2705,0.2477,0.2477,0.2477,0,0.1929,0.1881,0.1868,0.183,0.1875,0.1953,0.1955,0.2017,0.2136,0.2209,0.2223,0.2393,0.2394,0.2483,0.2495,0.2476,0.2542,0.248,0.2607,0.2621,0.2634,0.2691,0.2711,0.2477,0.2477,0.2477,0.2477,0,0.1873,0.1862,0.1841,0.1805,0.1829,0.1838,0.1886,0.1941,0.2053,0.2155,0.226,0.2304,0.2431,0.243,0.2453,0.2564,0.2579,0.2597,0.2605,0.265,0.2706,0.2727,0.2478,0.2478,0.2477,0.2477,0,0,0.1822,0.18,0.18,0.1811,0.1823,0.184,0.1889,0.1965,0.2078,0.2145,0.2308,0.2346,0.2446,0.2482,0.2541,0.2612,0.2737,0.2645,0.2651,0.2708,0.2973,0.2799,0.2805,0.2803,0.2807,0.281,0.2967,0,0.1786,0.174,0.1746,0.1769,0.1751,0.1829,0.1889,0.1983,0.2081,0.2227,0.2318,0.2457,0.2445,0.2541,0.261,0.2739,0.2798,0.2692,0.2918,0.2923,0.2769,0.2826,0.2615,0.2722,0.2988,0.2991,0.2994,0,0.1698,0.1695,0.17,0.1773,0.1775,0.1826,0.197,0.2029,0.2207,0.2297,0.2447,0.2553,0.2707,0.2678,0.289,0.284,0.29,0.2954,0.2963,0.2816,0.2788,0.2726,0.275,0.3029,0.3026,0.3024,0.3021,0,0.1653,0.1659,0.1689,0.1705,0.1785,0.1859,0.1932,0.2087,0.2172,0.2388,0.25,0.2684,0.2818,0.2937,0.304,0.3011,0.3244,0.3226,0.3107,0.3095,0.2961,0.2929,0.3347,0.3347,0.3347,0.3346,0.3346,0,0.1584,0.1606,0.1691,0.1708,0.1793,0.1864,0.1998,0.2096,0.2275,0.2412,0.2565,0.2716,0.2897,0.3047,0.3109,0.3172,0.3315,0.3117,0.3135,0.2948,0.2914,0.3217,0.32,0.3352,0.3351,0.335,0.3349,0,0.1518,0.1564,0.1601,0.1718,0.1769,0.1841,0.2012,0.2098,0.228,0.2471,0.2558,0.2795,0.3013,0.3129,0.3337,0.3248,0.3333,0.3304,0.3034,0.3011,0.3087,0.3068,0.3207,0.3202,0.3198,0.3195,0.3193,0,0.1472,0.1487,0.1606,0.1649,0.1716,0.1839,0.1919,0.2092,0.2196,0.2519,0.2609,0.288,0.3028,0.3212,0.3191,0.3239,0.3331,0.2984,0.2849,0.3075,0.3079,0.3067,0.3053,0.2689,0.2682,0.2677,0.2672,0,0.1412,0.1476,0.1526,0.1598,0.1689,0.1769,0.1917,0.2004,0.2238,0.2438,0.2717,0.2866,0.3014,0.2973,0.2947,0.2934,0.2955,0.2865,0.3266,0.2711,0.2587,0.2589,0.2595,0.2624,0.2629,0.2632,0.2635,0.2637,0.1395,0.1415,0.1489,0.1559,0.1632,0.171,0.1802,0.1969,0.2168,0.2425,0.2612,0.2744,0.2722,0.2601,0.2551,0.2509,0.2677,0.2537,0.2555,0.258,0.2446,0.2317,0.2278,0.228,0.2283,0.2285,0.2287,0,0.1367,0.141,0.1441,0.152,0.1556,0.1653,0.1799,0.189,0.2134,0.2274,0.2468,0.2265,0.2189,0.2244,0.2088,0.1995,0.1995,0.1936,0.1953,0.2002,0.2045,0.1885,0.1568,0.1566,0.1564,0.1562,0,0,0.1354,0.1373,0.138,0.1433,0.1522,0.1633,0.1739,0.1871,0.197,0.2041,0.207,0.2094,0.2155,0.1828,0.1763,0.1678,0.1833,0.161,0.2192,0.2265,0.2306,0.2396,0.2204,0,0,0,0,0]},{"header":{"parameterUnit":"m.s-1","parameterCategory":2,"la1":30.2991,"la2":30.254,"lo1":-89.0895,"lo2":-89.0444,"dy":0.0017,"dx":0.0017,"nx":28,"ny":28,"refTime":"2025-11-14T09:00:00:Z","depth":"2","parameterNumber":3,"parameterNumberName":"V-component_of_CURRENTS"},"data":[0,0,0,0,0,0,0,0,0,0,0,0,0,0,0,0,0,0,0,0,0,0,0,0,0,0,0,0,0,0,0,0,0,0,0,0,0,0,0,0,0,0,0,0,0,0,0,0,0,0,0,0,0,0,0,0,0,0,-0.0011,-0.0012,0,-0.0138,-0.0139,-0.014,-0.0209,-0.021,-0.021,-0.0211,-0.0355,-0.0359,-0.0362,0,0,0,0,0,0,0,0,0,0,0,0,0,0.0075,0.0075,-0.001,-0.0013,-0.0015,-0.0138,-0.0139,-0.0141,-0.0209,-0.021,-0.0211,-0.0211,-0.0354,-0.0358,-0.0362,0,0,0,0,0,0,0,0,0,0,0,0,0,0.0007,0.0075,-0.001,-0.0067,-0.0074,-0.0138,-0.0139,-0.0141,-0.0209,-0.021,-0.0211,-0.0212,-0.0353,-0.0358,-0.0363,-0.0375,0,0,-0.0378,-0.038,0,0,0,0,0,0,0,0,0.0011,0.0004,-0.0057,-0.0064,-0.0071,-0.0163,-0.0163,-0.0222,-0.0209,-0.0152,-0.0211,-0.0212,-0.0295,-0.0305,-0.032,-0.0382,-0.0388,-0.0378,-0.0381,-0.0383,-0.0385,0,0,0,0,0,0,0,0.0016,0.0009,-0.0056,-0.0059,-0.0068,-0.0121,-0.013,-0.0174,-0.0214,-0.0157,-0.0164,-0.0186,-0.0299,-0.0315,-0.0324,-0.039,-0.0378,-0.0382,-0.0385,-0.0387,-0.0481,-0.048,0,0,0,0,0,0,0.0028,0.0014,-0.0052,-0.006,-0.0037,-0.0122,-0.0132,-0.0129,-0.0213,-0.0228,-0.0185,-0.0189,-0.0306,-0.0318,-0.0329,-0.0327,-0.0383,-0.0388,-0.0391,-0.0481,-0.0481,-0.048,0,0,0,0,0,0,0.0031,0.0024,-0.0047,-0.0032,-0.0045,-0.0122,-0.0118,-0.0131,-0.0148,-0.0235,-0.0249,-0.019,-0.0307,-0.0322,-0.0358,-0.0335,-0.039,-0.0394,-0.0482,-0.0481,-0.048,-0.0338,0,0,0,0,0,0,0.0034,0.0027,0.0038,-0.003,-0.0046,-0.0061,-0.0118,-0.0133,-0.0163,-0.0169,-0.0244,-0.0258,-0.0309,-0.035,-0.0363,-0.0342,-0.0398,-0.0482,-0.0481,-0.0481,-0.0343,-0.0333,-0.0323,0,0,0,0,0,0.0038,0.0068,0.004,0.0031,-0.0028,-0.006,-0.0071,-0.0128,-0.0162,-0.015,-0.0209,-0.0256,-0.0354,-0.0353,-0.0368,-0.0349,-0.0483,-0.0482,-0.0481,-0.0348,-0.0335,-0.0324,0,0,0,0,0,0,0.0107,0.006,0.0029,0.0042,-0.0,-0.0073,-0.0074,-0.0119,-0.0157,-0.0165,-0.0247,-0.0264,-0.0291,-0.0341,-0.0338,-0.0376,-0.0428,-0.0429,-0.0321,-0.031,-0.03,-0.025,-0.0402,0,0,0,0,0,0.0127,0.0137,0.0077,0.0082,0.007,-0.0002,-0.0024,-0.0061,-0.0112,-0.013,-0.019,-0.0252,-0.0298,-0.0319,-0.0371,-0.0383,-0.041,-0.0385,-0.0375,-0.0365,-0.0337,-0.0353,-0.034,-0.0477,-0.0477,-0.0477,0,0,0.0141,0.0124,0.0121,0.0096,0.0059,0.0064,-0.0014,-0.0034,-0.0032,-0.014,-0.0151,-0.0222,-0.0297,-0.0314,-0.033,-0.035,-0.0342,-0.0364,-0.0355,-0.0331,-0.035,-0.0336,-0.0324,-0.0476,-0.0476,-0.0476,0,0,0.0189,0.0176,0.02,0.0189,0.0148,0.0113,0.0113,0.0049,0.0026,-0.0001,-0.008,-0.0127,-0.0202,-0.0242,-0.0274,-0.024,-0.0294,-0.0268,-0.0167,-0.0182,-0.017,-0.016,-0.0172,-0.0164,-0.0255,-0.0255,-0.0255,0,0.0207,0.0237,0.0199,0.023,0.0227,0.0146,0.0174,0.0146,0.0075,0.0068,0.0016,-0.0083,-0.0161,-0.0166,-0.0164,-0.0213,-0.0229,-0.0201,-0.0164,-0.0155,-0.0147,-0.0162,-0.0155,-0.0248,-0.0249,-0.025,-0.025,0,0.0271,0.0301,0.032,0.0335,0.0334,0.0346,0.0305,0.0296,0.0244,0.0205,0.0175,0.0074,0.0021,-0.002,-0.0085,-0.0066,-0.0098,-0.0152,-0.0183,-0.0123,-0.0145,-0.014,-0.0238,-0.0241,-0.0243,-0.0244,0,0,0.0306,0.0352,0.036,0.0396,0.0395,0.0404,0.0425,0.0421,0.0446,0.0368,0.0396,0.0288,0.0227,0.0186,0.0097,0.0076,0.0097,-0.0001,-0.0005,0.001,0.0077,-0.0018,-0.0022,0.0056,0.0058,0.0059,0.0041,0,0.0364,0.0444,0.0451,0.0531,0.0574,0.0545,0.0582,0.0573,0.0541,0.0552,0.0458,0.0437,0.031,0.0285,0.0248,0.0138,0.0117,0.0108,-0.0002,-0.0005,-0.0078,-0.0017,-0.0021,-0.0043,0.0046,0.0047,0.0047,0,0.0433,0.0482,0.0561,0.0651,0.0668,0.0698,0.075,0.0773,0.0773,0.075,0.0719,0.0646,0.0602,0.0479,0.0361,0.0365,0.024,0.0148,0.0144,0.0015,-0.009,-0.0093,-0.0039,0.0055,0.0054,0.0054,0.0053,0,0.0483,0.0574,0.0638,0.0665,0.0738,0.0771,0.0802,0.0823,0.086,0.0876,0.0901,0.0837,0.0798,0.0669,0.0456,0.0421,0.0328,0.0249,0.0052,0.0044,-0.0001,-0.0017,0.0174,0.0174,0.0175,0.0175,0.0175,0,0.0558,0.062,0.0665,0.0709,0.0809,0.0836,0.0933,0.0953,0.0998,0.107,0.1002,0.1047,0.0841,0.075,0.0554,0.0331,0.04,0.0096,0.0042,0.0044,0.0033,0.0076,0.0065,0.0174,0.0174,0.0174,0.0174,0,0.0605,0.0631,0.0727,0.0806,0.0836,0.0905,0.1007,0.1092,0.1111,0.1205,0.1218,0.1202,0.1106,0.0887,0.0677,0.0443,0.0246,0.0137,0.0151,0.0097,-0.0048,-0.0052,-0.0054,-0.0057,-0.006,-0.0062,-0.0064,0,0.0629,0.0678,0.0785,0.085,0.0883,0.0983,0.1076,0.1134,0.1208,0.1308,0.1365,0.1322,0.1287,0.0961,0.0597,0.0263,0.0237,-0.0,-0.0092,-0.0014,-0.0067,-0.0067,-0.0067,-0.0088,-0.009,-0.0092,-0.0093,0,0.0683,0.0711,0.0791,0.0915,0.1016,0.1146,0.1251,0.1326,0.1413,0.1505,0.1623,0.1614,0.1298,0.0962,0.0464,0.0239,0.0055,-0.005,0.0066,-0.0051,-0.0054,-0.0105,-0.0102,-0.0108,-0.0106,-0.0105,-0.0104,-0.0104,0.0713,0.0781,0.0875,0.0999,0.1116,0.1271,0.1387,0.1518,0.1669,0.1754,0.1753,0.1688,0.1277,0.0622,0.0297,-0.0048,-0.0061,-0.0237,-0.0227,-0.0217,-0.0239,-0.025,-0.0342,-0.0342,-0.0342,-0.0342,-0.0342,0,0.0758,0.0833,0.0956,0.1115,0.1256,0.1289,0.1485,0.1622,0.1819,0.1812,0.1848,0.1432,0.1016,0.0633,0.0074,-0.0293,-0.0274,-0.036,-0.027,-0.0257,-0.0245,-0.0263,-0.0375,-0.0375,-0.0376,-0.0376,0,0,0.0792,0.0914,0.0988,0.1201,0.1292,0.148,0.1591,0.1805,0.1854,0.1873,0.174,0.1489,0.1008,0.0585,0.0164,-0.0092,-0.0084,-0.0134,-0.0089,0.0076,0.0093,-0.0176,-0.0192,0,0,0,0,0]}],[{"header":{"parameterUnit":"m.s-1","parameterCategory":2,"la1":30.2991,"la2":30.254,"lo1":-89.0895,"lo2":-89.0444,"dy":0.0017,"dx":0.0017,"nx":28,"ny":28,"refTime":"2025-11-14T09:00:00:Z","depth":"4","parameterNumber":2,"parameterNumberName":"U-component_of_CURRENTS"},"data":[0,0,0,0,0,0,0,0,0,0,0,0,0,0,0,0,0,0,0,0,0,0,0,0,0,0,0,0,0,0,0,0,0,0,0,0,0,0,0,0,0,0,0,0,0,0,0,0,0,0,0,0,0,0,0,0,0,0,0.0504,0.0504,0,0.0536,0.0537,0.0538,0.0613,0.0614,0.0615,0.0616,0.0642,0.0641,0.0641,0,0,0,0,0,0,0,0,0,0,0,0,0,0.0424,0.0426,0.0504,0.0504,0.0504,0.0536,0.0537,0.0538,0.0612,0.0614,0.0615,0.0617,0.0642,0.0641,0.0641,0,0,0,0,0,0,0,0,0,0,0,0,0,0.0462,0.0427,0.0504,0.0543,0.0546,0.0536,0.0537,0.0538,0.0612,0.0614,0.0616,0.0617,0.0642,0.0641,0.0641,0.06,0,0,0.0639,0.0638,0,0,0,0,0,0,0,0,0.046,0.0465,0.0537,0.054,0.0544,0.0569,0.0518,0.0557,0.0612,0.0591,0.0616,0.0618,0.0613,0.0615,0.0622,0.0601,0.0602,0.0639,0.0638,0.0638,0.0638,0,0,0,0,0,0,0,0.0457,0.0463,0.052,0.0537,0.0541,0.053,0.0538,0.0526,0.0594,0.0593,0.0597,0.0595,0.0616,0.0623,0.0623,0.0602,0.0639,0.0638,0.0638,0.0637,0.069,0.0692,0,0,0,0,0,0,0.0449,0.0462,0.0519,0.0521,0.0501,0.053,0.054,0.0562,0.0594,0.06,0.0593,0.0598,0.0623,0.0624,0.0624,0.0703,0.0638,0.0637,0.0637,0.0688,0.069,0.0692,0,0,0,0,0,0,0.0447,0.0454,0.0518,0.0487,0.0494,0.053,0.0554,0.0562,0.0586,0.0594,0.0601,0.0611,0.0624,0.0625,0.0648,0.0699,0.0637,0.0636,0.0686,0.0689,0.0691,0.0779,0,0,0,0,0,0,0.0445,0.0454,0.0473,0.0488,0.0496,0.0535,0.0552,0.0561,0.0578,0.0586,0.061,0.0614,0.0626,0.065,0.0648,0.0697,0.0636,0.0684,0.0687,0.0691,0.0773,0.0784,0.0793,0,0,0,0,0,0.0443,0.0464,0.0474,0.0481,0.052,0.0536,0.054,0.0571,0.0578,0.0598,0.062,0.0615,0.0671,0.065,0.0647,0.0698,0.0682,0.0686,0.069,0.0769,0.0782,0.0793,0,0,0,0,0,0,0.0435,0.0473,0.0485,0.0517,0.0533,0.0548,0.0568,0.0571,0.0601,0.0619,0.062,0.0626,0.0668,0.0661,0.0638,0.0725,0.0681,0.0685,0.0742,0.0754,0.0764,0.0764,0.0635,0,0,0,0,0,0.0439,0.0464,0.0493,0.0509,0.0532,0.0546,0.0555,0.0577,0.0597,0.0614,0.0643,0.0667,0.0677,0.0698,0.0711,0.0742,0.0721,0.0779,0.0789,0.0797,0.0797,0.0812,0.0823,0.0706,0.0706,0.0706,0,0,0.0421,0.0455,0.0459,0.0508,0.053,0.056,0.056,0.059,0.0616,0.0607,0.0678,0.0692,0.0688,0.0744,0.0763,0.075,0.0819,0.0802,0.0809,0.0804,0.0818,0.0829,0.0839,0.0709,0.0708,0.0708,0,0,0.0416,0.0455,0.0486,0.0513,0.0558,0.0573,0.0581,0.063,0.0667,0.0704,0.072,0.076,0.0787,0.0816,0.0817,0.0876,0.0859,0.09,0.0963,0.0979,0.0988,0.0997,0.0979,0.0985,0.0918,0.0919,0.0919,0,0.041,0.0456,0.0489,0.0537,0.0559,0.058,0.0615,0.0644,0.0696,0.0727,0.0742,0.0805,0.0814,0.0856,0.0908,0.0898,0.09,0.0918,0.0991,0.0999,0.1006,0.0986,0.0991,0.0923,0.0923,0.0922,0.0922,0,0.043,0.0476,0.0499,0.057,0.0593,0.0628,0.0673,0.0726,0.0763,0.0788,0.0857,0.0885,0.0928,0.095,0.095,0.1021,0.1003,0.099,0.096,0.1023,0.0998,0.1002,0.093,0.0928,0.0927,0.0926,0,0,0.0414,0.05,0.0515,0.0555,0.0623,0.0646,0.0705,0.0762,0.0805,0.0871,0.0932,0.0978,0.1016,0.1022,0.1048,0.108,0.1138,0.1083,0.1082,0.1062,0.1168,0.1121,0.112,0.1157,0.1158,0.1159,0.1129,0,0.0435,0.0515,0.0554,0.0616,0.066,0.071,0.0748,0.0798,0.0858,0.0936,0.0971,0.1038,0.1034,0.1093,0.112,0.1133,0.1155,0.1146,0.1113,0.111,0.1059,0.1126,0.1164,0.1132,0.1132,0.1133,0.1133,0,0.0462,0.0513,0.0577,0.0653,0.068,0.0716,0.0804,0.085,0.0936,0.0997,0.1071,0.1105,0.1175,0.1171,0.1197,0.1202,0.1201,0.1195,0.1193,0.112,0.1072,0.1057,0.114,0.1139,0.1139,0.1138,0.1138,0,0.0436,0.0537,0.0586,0.0613,0.0692,0.0742,0.0794,0.0871,0.0935,0.1067,0.1123,0.1186,0.1245,0.1247,0.1245,0.1245,0.1253,0.1234,0.1171,0.1166,0.1174,0.1166,0.1249,0.1249,0.1249,0.125,0.125,0,0.0447,0.0494,0.0587,0.0613,0.0675,0.074,0.083,0.0898,0.101,0.1078,0.1166,0.1224,0.1279,0.1287,0.1266,0.1226,0.1261,0.1188,0.1167,0.121,0.1207,0.1176,0.1168,0.1248,0.1249,0.1249,0.1249,0,0.041,0.047,0.053,0.0626,0.0664,0.0712,0.0857,0.0922,0.1029,0.1131,0.1184,0.1279,0.1295,0.129,0.13,0.125,0.1216,0.1191,0.1225,0.1205,0.1106,0.1103,0.1115,0.1113,0.1112,0.1111,0.111,0,0.0401,0.0424,0.0523,0.0564,0.062,0.0721,0.0785,0.0925,0.1003,0.1138,0.1171,0.1246,0.1287,0.123,0.1246,0.1189,0.1177,0.1152,0.1148,0.112,0.1099,0.1098,0.1097,0.1108,0.1107,0.1107,0.1107,0,0.0366,0.0396,0.0436,0.0518,0.0599,0.0695,0.081,0.0858,0.1006,0.1104,0.1162,0.1187,0.1201,0.1199,0.1178,0.1131,0.1168,0.1138,0.114,0.1136,0.1111,0.1091,0.1092,0.1102,0.1103,0.1103,0.1103,0,0.0331,0.0338,0.039,0.0465,0.0564,0.0645,0.0716,0.0819,0.0907,0.1054,0.1068,0.112,0.1199,0.1168,0.1132,0.1105,0.1086,0.1054,0.1061,0.1066,0.1066,0.1029,0.0987,0,0,0,0,0,0.0297,0.0299,0.0347,0.0423,0.0526,0.0585,0.0718,0.0792,0.0921,0.0943,0.1015,0.1027,0.1036,0.1062,0.1017,0.108,0.1065,0.1025,0.1026,0.1076,0.1081,0.1087,0,0,0,0,0,0,0.027,0.0293,0.0311,0.0387,0.0435,0.0543,0.062,0.0702,0.0734,0.0856,0.086,0.0966,0.0969,0.1031,0.0991,0.0997,0.0981,0.1068,0.1066,0.1072,0.1077,0.1082,0.109,0,0,0,0,0]},{"header":{"parameterUnit":"m.s-1","parameterCategory":2,"la1":30.2991,"la2":30.254,"lo1":-89.0895,"lo2":-89.0444,"dy":0.0017,"dx":0.0017,"nx":28,"ny":28,"refTime":"2025-11-14T09:00:00:Z","depth":"4","parameterNumber":3,"parameterNumberName":"V-component_of_CURRENTS"},"data":[0,0,0,0,0,0,0,0,0,0,0,0,0,0,0,0,0,0,0,0,0,0,0,0,0,0,0,0,0,0,0,0,0,0,0,0,0,0,0,0,0,0,0,0,0,0,0,0,0,0,0,0,0,0,0,0,0,0,0.0385,0.0385,0,0.0336,0.0335,0.0334,0.0298,0.0298,0.0298,0.0297,0.0216,0.0214,0.0212,0,0,0,0,0,0,0,0,0,0,0,0,0,0.0399,0.0399,0.0385,0.0385,0.0385,0.0336,0.0335,0.0334,0.0298,0.0298,0.0298,0.0297,0.0216,0.0214,0.0212,0,0,0,0,0,0,0,0,0,0,0,0,0,0.0374,0.0399,0.0386,0.0362,0.036,0.0336,0.0335,0.0334,0.0298,0.0298,0.0298,0.0297,0.0217,0.0214,0.0211,0.0196,0,0,0.0202,0.02,0,0,0,0,0,0,0,0,0.0375,0.0373,0.0366,0.0364,0.0361,0.0324,0.031,0.0287,0.0298,0.0319,0.0297,0.0297,0.025,0.0245,0.0234,0.0193,0.0189,0.0202,0.02,0.0198,0.0197,0,0,0,0,0,0,0,0.0377,0.0375,0.0364,0.0366,0.0362,0.0337,0.0333,0.0305,0.0285,0.0317,0.0315,0.0313,0.0249,0.0237,0.0231,0.0188,0.0202,0.0199,0.0197,0.0196,0.0108,0.0107,0,0,0,0,0,0,0.039,0.0377,0.0365,0.0362,0.037,0.0337,0.0333,0.0335,0.0286,0.0279,0.0313,0.0311,0.0242,0.0235,0.0228,0.0196,0.0198,0.0195,0.0194,0.0108,0.0108,0.0107,0,0,0,0,0,0,0.0391,0.039,0.0367,0.037,0.0365,0.0338,0.0339,0.0334,0.0326,0.0283,0.0275,0.0311,0.0242,0.0233,0.0211,0.0193,0.0194,0.0191,0.0109,0.0108,0.0107,0.014,0,0,0,0,0,0,0.0391,0.039,0.0395,0.0371,0.0366,0.0357,0.034,0.0333,0.0325,0.0323,0.0279,0.0271,0.0241,0.0216,0.0208,0.0189,0.0189,0.011,0.0109,0.0108,0.0139,0.014,0.0141,0,0,0,0,0,0.0392,0.0396,0.0396,0.0394,0.0374,0.0357,0.0352,0.033,0.0326,0.0322,0.0298,0.0272,0.0203,0.0214,0.0204,0.0184,0.011,0.0109,0.0108,0.0139,0.014,0.0141,0,0,0,0,0,0,0.0401,0.0393,0.0391,0.0393,0.038,0.0352,0.0346,0.0336,0.0314,0.0314,0.0275,0.0265,0.0236,0.021,0.0222,0.0155,0.0148,0.0145,0.0175,0.0176,0.0176,0.0165,0.0186,0,0,0,0,0,0.0409,0.0408,0.0398,0.0397,0.0396,0.0375,0.0366,0.0355,0.0334,0.0324,0.0295,0.026,0.0222,0.0202,0.017,0.0141,0.0101,0.0118,0.0119,0.012,0.0103,0.0036,0.0029,0.0104,0.0104,0.0104,0,0,0.0413,0.0406,0.0407,0.0399,0.0388,0.0381,0.0369,0.0361,0.0351,0.0318,0.0298,0.0267,0.0218,0.0182,0.0165,0.0159,0.0082,0.0118,0.0119,0.0102,0.0034,0.0026,0.002,0.0103,0.0103,0.0103,0,0,0.0413,0.0417,0.0417,0.041,0.0401,0.0389,0.0392,0.0373,0.0363,0.0346,0.0312,0.0275,0.023,0.0182,0.0154,0.0139,0.0092,0.0127,0.0116,0.0052,0.0045,0.0038,-0.0001,-0.0011,0.0123,0.0123,0.0123,0,0.0421,0.0419,0.0413,0.041,0.0406,0.0396,0.0395,0.0381,0.0357,0.0341,0.0344,0.0255,0.0223,0.0155,0.0147,0.0139,0.0102,0.0121,0.0053,0.0045,0.0038,-0.0001,-0.0013,0.0125,0.0124,0.0124,0.0124,0,0.0417,0.042,0.042,0.0414,0.0407,0.0407,0.0394,0.0386,0.0378,0.0354,0.0304,0.0258,0.0198,0.0181,0.0159,0.0084,0.0077,0.0067,0.0052,0.0032,-0.0007,-0.002,0.0127,0.0126,0.0126,0.0125,0,0,0.043,0.0422,0.0424,0.0427,0.0415,0.0412,0.0398,0.0377,0.0358,0.0329,0.0286,0.0225,0.0194,0.0158,0.012,0.006,-0.001,0.004,0.0036,0.0005,-0.0143,-0.0115,-0.0127,-0.0034,-0.0036,-0.0038,-0.0141,0,0.0435,0.0437,0.0427,0.0429,0.0433,0.0419,0.0401,0.0377,0.0354,0.0309,0.0251,0.0202,0.0187,0.0155,0.0091,0.0008,-0.0047,0.0019,-0.0123,-0.0127,-0.0098,-0.0143,-0.0047,-0.0151,-0.0154,-0.0156,-0.0158,0,0.0435,0.044,0.0449,0.044,0.0441,0.0439,0.0414,0.0398,0.0332,0.0308,0.0244,0.0193,0.0099,0.0096,-0.0057,-0.0016,-0.008,-0.0136,-0.0142,-0.0144,-0.0126,-0.0134,-0.0182,-0.018,-0.0178,-0.0177,-0.0175,0,0.045,0.0454,0.0466,0.0466,0.0453,0.0455,0.0448,0.04,0.0386,0.0307,0.0273,0.0161,0.0102,-0.0004,-0.011,-0.0095,-0.0275,-0.0266,-0.03,-0.0297,-0.0303,-0.0295,-0.0377,-0.0377,-0.0377,-0.0377,-0.0377,0,0.0453,0.0464,0.0483,0.049,0.0502,0.0483,0.0481,0.045,0.0399,0.0369,0.0277,0.0219,0.007,-0.0043,-0.0132,-0.0258,-0.0292,-0.0321,-0.0335,-0.0282,-0.0271,-0.0311,-0.0301,-0.0381,-0.038,-0.0379,-0.0378,0,0.0459,0.0468,0.0492,0.0505,0.0512,0.0526,0.0529,0.0517,0.0463,0.0417,0.0391,0.0246,0.0097,-0.0043,-0.0225,-0.0278,-0.04,-0.043,-0.0358,-0.0363,-0.0371,-0.0359,-0.0489,-0.0489,-0.0489,-0.0489,-0.0489,0,0.0455,0.0471,0.0518,0.0541,0.0555,0.0579,0.0586,0.0559,0.0545,0.0439,0.0407,0.0251,0.0149,-0.0089,-0.0235,-0.0414,-0.0423,-0.0476,-0.0436,-0.0388,-0.039,-0.0377,-0.0365,-0.049,-0.049,-0.049,-0.049,0,0.0455,0.0485,0.0509,0.0564,0.0598,0.0626,0.0637,0.063,0.0582,0.0538,0.042,0.0283,0.0106,-0.0079,-0.0225,-0.0346,-0.0442,-0.0478,-0.0478,-0.0441,-0.0391,-0.0389,-0.0377,-0.049,-0.049,-0.049,-0.049,0,0.0462,0.0488,0.0532,0.0574,0.0626,0.0652,0.0658,0.0634,0.0614,0.0505,0.0471,0.0277,0.0162,-0.0045,-0.0178,-0.0303,-0.0322,-0.0335,-0.0342,-0.0344,-0.0265,-0.0178,-0.0243,0,0,0,0,0,0.0461,0.0486,0.0529,0.0579,0.0636,0.0668,0.0674,0.0669,0.0632,0.0566,0.0522,0.0367,0.0139,0.0019,-0.0101,-0.0181,-0.0346,-0.0323,-0.0364,-0.0494,-0.0493,-0.0423,0,0,0,0,0,0,0.0457,0.0502,0.0523,0.0579,0.0622,0.0676,0.0692,0.0665,0.0621,0.0565,0.0438,0.0371,0.0139,0.0219,-0.0091,-0.0135,-0.0169,-0.0437,-0.0438,-0.0494,-0.0493,-0.0493,-0.042,0,0,0,0,0]}]]